Black River Falls, WI

2:05 PM CDT on May 29, 2017 (GMT -0500)
Black River Falls Area

Weather History for KBCK - April, 2013

Change the Weather History Date:

Monday, April 29, 2013

  Actual Average (KCMY) Record (KCMY)
Temperature  
Mean Temperature 63 °F -  
Max Temperature 73 °F 66 °F 92 °F (1952)
Min Temperature 51 °F 39 °F 23 °F (1958)
Degree Days  
Heating Degree Days 2    
Growing Degree Days 13 (Base 50)    
Moisture  
Dew Point 49 °F    
Average Humidity 61    
Maximum Humidity 88    
Minimum Humidity 41    
Precipitation  
Precipitation 0.00 in - - ()
Sea Level Pressure  
Sea Level Pressure 29.73 in    
Wind  
Wind Speed 3 mph (South)    
Max Wind Speed 12 mph    
Max Gust Speed 18 mph    
Visibility 10 miles    
Events Rain , Thunderstorm    
Averages and records for this station are not official NWS values.
T = Trace of Precipitation, MM = Missing Value Source: NWS Daily Summary

Daily Weather History Graph

Daily Weather History Graph

Search for Another Location

Airport or City:

Trip Planner

Search our weather history database for the weather conditions in past years. The results will help you decide how hot, cold, wet, or windy it might be!

Date:

Astronomy

Apr. 29, 2013 Rise Set
Actual Time 5:57 AM CDT 8:05 PM CDT
Civil Twilight 5:25 AM CDT 8:36 PM CDT
Nautical Twilight 4:46 AM CDT 9:16 PM CDT
Astronomical Twilight 4:03 AM CDT 9:59 PM CDT
Moon No Moon Rise 9:14 AM CDT
Length of Visible Light 15h 11m
Length of Day
14h 08m
Waning Gibbous, 80% of the Moon is Illuminated
Apr 29
Waning Gibbous
May 2
Last Quarter
May 9
New
May 17
First Quarter
May 24
Full

Hourly Weather History & Observations

Time (CDT) Temp. Dew Point Humidity Pressure Visibility Wind Dir Wind Speed Gust Speed Precip Events Conditions
12:15 AM 60.8 °F 42.8 °F 52% 29.75 in 10.0 mi South 3.5 mph - N/A   Scattered Clouds
12:35 AM 60.8 °F 42.8 °F 52% 29.75 in 10.0 mi South 3.5 mph - N/A   Scattered Clouds
12:55 AM 62.6 °F 42.8 °F 48% 29.75 in 10.0 mi Calm Calm - N/A   Mostly Cloudy
1:35 AM 59.0 °F 44.6 °F 59% 29.76 in 10.0 mi Calm Calm - N/A   Overcast
1:55 AM 55.4 °F 44.6 °F 67% 29.76 in 10.0 mi Calm Calm - N/A   Overcast
2:15 AM 55.4 °F 44.6 °F 67% 29.76 in 10.0 mi Calm Calm - N/A   Overcast
2:35 AM 55.4 °F 44.6 °F 67% 29.77 in 10.0 mi Calm Calm - N/A   Overcast
2:55 AM 55.4 °F 44.6 °F 67% 29.77 in 10.0 mi SW 3.5 mph - N/A   Overcast
3:35 AM 57.2 °F 44.6 °F 63% 29.78 in 10.0 mi West 3.5 mph - N/A Rain Light Rain
3:55 AM 55.4 °F 48.2 °F 77% 29.78 in 10.0 mi Calm Calm - N/A   Overcast
4:15 AM 53.6 °F 46.4 °F 77% 29.78 in 10.0 mi Calm Calm - N/A   Overcast
4:35 AM 55.4 °F 46.4 °F 72% 29.78 in 10.0 mi Calm Calm - N/A   Overcast
4:55 AM 55.4 °F 48.2 °F 77% 29.79 in 10.0 mi SSW 3.5 mph - N/A Rain Light Rain
5:15 AM 55.4 °F 48.2 °F 77% 29.77 in 10.0 mi Calm Calm - N/A   Light Drizzle
5:35 AM 55.4 °F 50.0 °F 82% 29.79 in 10.0 mi SSW 5.8 mph - N/A   Light Drizzle
5:55 AM 59.0 °F 48.2 °F 67% 29.79 in 10.0 mi SSW 3.5 mph - N/A   Drizzle
6:15 AM 55.4 °F 50.0 °F 82% 29.76 in 10.0 mi NE 5.8 mph - N/A Rain Light Rain
6:35 AM 55.4 °F 50.0 °F 82% 29.79 in 10.0 mi WSW 5.8 mph - N/A   Overcast
6:55 AM 55.4 °F 50.0 °F 82% 29.79 in 10.0 mi Calm Calm - N/A   Overcast
7:15 AM 53.6 °F 50.0 °F 88% 29.78 in 10.0 mi Calm Calm - N/A   Overcast
7:35 AM 55.4 °F 50.0 °F 82% 29.79 in 10.0 mi SSW 3.5 mph - N/A   Overcast
7:55 AM 57.2 °F 50.0 °F 77% 29.79 in 10.0 mi SSW 3.5 mph - N/A   Scattered Clouds
8:15 AM 59.0 °F 51.8 °F 77% 29.79 in 10.0 mi SW 3.5 mph - N/A   Scattered Clouds
8:35 AM 59.0 °F 51.8 °F 77% 29.79 in 10.0 mi SW 4.6 mph - N/A   Clear
8:55 AM 60.8 °F 51.8 °F 72% 29.79 in 10.0 mi SW 3.5 mph - N/A   Clear
9:15 AM 62.6 °F 51.8 °F 68% 29.78 in 10.0 mi West 3.5 mph - N/A   Clear
9:35 AM 62.6 °F 51.8 °F 68% 29.76 in 10.0 mi Calm Calm - N/A   Clear
9:55 AM 64.4 °F 51.8 °F 64% 29.78 in 10.0 mi WSW 5.8 mph - N/A   Clear
10:15 AM 64.4 °F 51.8 °F 64% 29.78 in 10.0 mi WNW 4.6 mph - N/A   Clear
10:35 AM 68.0 °F 51.8 °F 56% 29.78 in 10.0 mi West 3.5 mph - N/A   Clear
10:55 AM 68.0 °F 50.0 °F 52% 29.78 in 10.0 mi West 3.5 mph - N/A   Clear
11:15 AM 68.0 °F 50.0 °F 52% 29.78 in 10.0 mi SSW 3.5 mph - N/A   Scattered Clouds
11:35 AM 69.8 °F 50.0 °F 49% 29.77 in 10.0 mi SW 3.5 mph - N/A   Scattered Clouds
11:55 AM 68.0 °F 50.0 °F 52% 29.77 in 10.0 mi Calm Calm - N/A   Mostly Cloudy
12:15 PM 69.8 °F 50.0 °F 49% 29.76 in 10.0 mi ESE 4.6 mph - N/A   Overcast
12:35 PM 69.8 °F 50.0 °F 49% 29.76 in 10.0 mi South 4.6 mph - N/A   Overcast
12:55 PM 71.6 °F 50.0 °F 46% 29.74 in 10.0 mi SW 4.6 mph - N/A   Mostly Cloudy
1:15 PM 71.6 °F 48.2 °F 43% 29.73 in 10.0 mi East 5.8 mph - N/A   Overcast
1:35 PM 71.6 °F 48.2 °F 43% 29.73 in 10.0 mi SW 4.6 mph - N/A   Overcast
1:55 PM 71.6 °F 48.2 °F 43% 29.72 in 10.0 mi SW 6.9 mph - N/A   Overcast
2:15 PM 71.6 °F 48.2 °F 43% 29.71 in 10.0 mi SSE 5.8 mph - N/A Thunderstorm Overcast
2:35 PM 71.6 °F 48.2 °F 43% 29.71 in 10.0 mi SSW 3.5 mph - N/A   Overcast
2:55 PM 71.6 °F 50.0 °F 46% 29.71 in 10.0 mi SW 5.8 mph - N/A   Overcast
3:15 PM 71.6 °F 50.0 °F 46% 29.70 in 10.0 mi South 6.9 mph - N/A   Overcast
3:35 PM 71.6 °F 51.8 °F 50% 29.69 in 10.0 mi South 9.2 mph - N/A   Overcast
3:55 PM 73.4 °F 51.8 °F 47% 29.68 in 10.0 mi SSE 6.9 mph - N/A   Overcast
4:15 PM 73.4 °F 51.8 °F 47% 29.67 in 10.0 mi SSE 5.8 mph - N/A   Overcast
4:35 PM 73.4 °F 50.0 °F 44% 29.67 in 10.0 mi SSE 8.1 mph - N/A   Overcast
4:55 PM 71.6 °F 50.0 °F 46% 29.67 in 10.0 mi South 8.1 mph - N/A   Overcast
5:15 PM 73.4 °F 51.8 °F 47% 29.67 in 10.0 mi South 8.1 mph - N/A   Overcast
5:35 PM 71.6 °F 51.8 °F 50% 29.67 in 10.0 mi South 9.2 mph - N/A   Overcast
5:55 PM 71.6 °F 46.4 °F 41% 29.67 in 10.0 mi South 6.9 mph - N/A   Overcast
6:15 PM 71.6 °F 46.4 °F 41% 29.68 in 10.0 mi South 11.5 mph 18.4 mph N/A   Overcast
6:35 PM 71.6 °F 48.2 °F 43% 29.68 in 10.0 mi South 8.1 mph - N/A   Mostly Cloudy
6:55 PM 69.8 °F 50.0 °F 49% 29.68 in 10.0 mi South 9.2 mph - N/A   Mostly Cloudy
7:15 PM 69.8 °F 50.0 °F 49% 29.68 in 10.0 mi South 5.8 mph - N/A   Overcast
7:35 PM 68.0 °F 50.0 °F 52% 29.67 in 10.0 mi SSE 4.6 mph - N/A   Overcast
7:55 PM 68.0 °F 51.8 °F 56% 29.67 in 10.0 mi SSE 5.8 mph - N/A   Overcast
8:15 PM 68.0 °F 51.8 °F 56% 29.67 in 10.0 mi SSE 3.5 mph - N/A   Mostly Cloudy
8:35 PM 64.4 °F 51.8 °F 64% 29.66 in 10.0 mi SE 3.5 mph - N/A   Scattered Clouds
8:55 PM 64.4 °F 51.8 °F 64% 29.67 in 10.0 mi SE 4.6 mph - N/A   Clear
9:15 PM 62.6 °F 51.8 °F 68% 29.66 in 10.0 mi ESE 5.8 mph - N/A   Clear
9:35 PM 62.6 °F 50.0 °F 63% 29.66 in 10.0 mi ESE 5.8 mph - N/A   Clear
9:55 PM 62.6 °F 50.0 °F 63% 29.66 in 10.0 mi ESE 4.6 mph - N/A   Clear
10:15 PM 57.2 °F 50.0 °F 77% 29.66 in 10.0 mi East 4.6 mph - N/A   Clear
10:35 PM 59.0 °F 50.0 °F 72% 29.66 in 10.0 mi East 3.5 mph - N/A   Clear
10:55 PM 55.4 °F 50.0 °F 82% 29.66 in 10.0 mi Calm Calm - N/A   Clear
11:15 PM 55.4 °F 50.0 °F 82% 29.65 in 10.0 mi NE 3.5 mph - N/A   Clear
11:35 PM 53.6 °F 50.0 °F 88% 29.65 in 10.0 mi Calm Calm - N/A   Clear
11:55 PM 51.8 °F 48.2 °F 88% 29.64 in 10.0 mi Calm Calm - N/A   Clear